Regional Weather Roundup
Issued by NWS Grand Forks, ND

Home | Current Version | Previous Version | Text Only | Print | Product List | Glossary Off
Versions: 1 2 3 4 5 6 7 8 9 10 11 12 13 14 15 16 17 18 19 20 21 22 23 24 25 26 27 28 29 30 31 32 33 34 35 36 37 38 39 40 41 42 43 44 45 46 47 48 49 50

000
ASUS43 KFGF 300710
RWRFGF
PRAIRIE TO PINES  WEATHER ROUNDUP
NATIONAL WEATHER SERVICE EASTERN NORTH DAKOTA/GRAND FORKS ND
200 AM CDT SAT JUL 30 2016

 **SATELLITE DATA USED TO AUGMENT SKY COVER AT AUTOMATED STATIONS**
 *****  WEATHER ACROSS EASTERN NORTH DAKOTA  *****

CITY           SKY/WX    TMP DP  RH WIND       PRES   REMARKS
GRAND FORKS    CLEAR     64  57  78 SE6       29.97F
GRAND FRKS AFB CLOUDY    62  56  81 S6        29.97F
DEVILS LAKE    PTCLDY    67  62  84 SE7       29.97F
FARGO          CLOUDY    71  61  70 S8        29.99F
WAHPETON ARPT  CLOUDY    64  59  82 S5        30.01F
$$

 ***** WEATHER ACROSS CENTRAL AND WESTERN NORTH DAKOTA  *****

CITY           SKY/WX    TMP DP  RH WIND       PRES   REMARKS
BISMARCK       RAIN      66  62  87 SE7       29.95F FOG
MINOT          PTCLDY    67  61  81 SE5       29.94F
JAMESTOWN      PTCLDY    62  60  93 SE3       29.98F
MINOT AFB      MOCLDY    58  56  92 S5        29.93F
GARRISON         N/A     67  65  93 E5        29.95F
WILLISTON      CLEAR     64  57  78 E3        29.94F
DICKINSON      CLEAR     58  56  93 S7        29.93F
HETTINGER      MOCLDY    63  57  81 SE5       29.97F
$$

 *****  OTHER AIRPORT OBSERVATIONS IN OUR AREA  *****

CITY           SKY/WX    TMP DP  RH WIND       PRES   REMARKS
WALHALLA       NOT AVBL
GRAFTON AIRPOR FAIR      59  59 100 SE5       29.98F
VALLEY CITY AR PTSUNNY   63  63 100 S7        30.02S
CANDO          NOT AVBL
CAVALIER APRT  FAIR      59  57  94 CALM      29.96F
GWINNER        FAIR      64  61  88 S6        30.01S
SHEYENNE NWR     N/A     64  62  94 S5        29.95
ROLLA          FAIR      57  57 100 SW5       29.98F
 ***** THE ABOVE OBSERVATIONS ARE NON NWS ARE NOT QUALITY
       CONTROLLED AND MAY MIS-REPORT RAIN FOR SNOW...
$$

  *****  WEATHER ACROSS NORTHERN MINNESOTA  *****

CITY           SKY/WX    TMP DP  RH WIND       PRES   REMARKS
FLAG ISLAND    CLEAR     72  64  78 CALM      29.98S
WARROAD        NOT AVBL
ROSEAU         CLEAR     59  54  82 S3        29.99F
HALLOCK        CLEAR     59  55  88 SE7       29.97F
THF RVR FALLS  CLEAR     56  55  97 SE3       30.01F
BAUDETTE       CLEAR     60  54  80 S3        30.01S
WASKISH        CLEAR     59  57  94 SE5       30.02F
CROOKSTON      PTCLDY    61  55  82 SE7       29.99F
GREENBUSH NDAW   N/A     55  54  94 SE2         N/A
$$
  *****  WEATHER ACROSS CENTRAL AND WEST MINNESOTA  *****

CITY           SKY/WX    TMP DP  RH WIND       PRES   REMARKS
FOSSTON        MOCLDY    54  46  76 CALM      30.02F
BEMIDJI        PTCLDY    63  60  92 S5        30.03F
PARK RAPIDS    PTCLDY    63  59  87 S6        30.04F
ELBOW LAKE     FAIR      63  60  90 E6        30.04S
WADENA         NOT AVBL
DETROIT LAKES  PTCLDY    64  63  94 S5        30.04S
MOORHEAD       CLOUDY    68  63  83 SE6       30.01S
FERGUS FALLS   CLOUDY    66  63  88 S5        30.04S
MORRIS MN      CLEAR     61  57  88 S5        30.03S
STAPLES        PTCLDY    61  54  77 CALM      30.05S
$$
  *****  WEATHER ELSEWHERE ACROSS MINNESOTA  *****

CITY           SKY/WX    TMP DP  RH WIND       PRES   REMARKS
DULUTH         PTCLDY    50  49  96 CALM      30.07F
INTRNTL FALLS  PTCLDY    61  53  75 VRB3      30.03F
ELY            CLEAR     50  46  87 CALM      30.08F
CLOQUET        CLOUDY    50  46  87 CALM      30.07S
WHEATON        NOT AVBL
BRAINERD       MOCLDY    62  55  77 SE3       30.05F
HIBBING        CLOUDY    48  48 100 CALM      30.07F
ALEXANDRIA     CLEAR     63  58  83 SE6       30.06F
SAINT CLOUD    PTCLDY    57  56  96 CALM      30.04F
MINNEAPOLIS    CLOUDY    71  57  61 NE5       30.03S
$$

  *****  WEATHER ACROSS SOUTH DAKOTA  *****

CITY           SKY/WX    TMP DP  RH WIND       PRES   REMARKS
SIOUX FALLS    CLEAR     59  55  87 CALM      30.05S
BROOKINGS      CLEAR     60  56  86 SE7       30.04F
WATERTOWN      CLEAR     63  56  78 SE8       30.04F
HURON          CLEAR     64  55  72 SE9       30.01F
SISSETON         N/A     65  59  81 S6        30.01S
ABERDEEN       CLOUDY    66  58  75 SE6       30.01R
MITCHELL       CLEAR     64  57  78 SE8       30.03S
PIERRE         CLEAR     68  55  63 SE14      29.96F
MOBRIDGE       MOCLDY    68  57  68 SE6       29.95S
RAPID CITY     CLEAR     56  53  90 E3        29.99F
$$

  *****  SOME WEATHER IN NEARBY STATES *****

CITY           SKY/WX    TMP DP  RH WIND       PRES   REMARKS
GLASGOW MT     CLEAR     62  54  74 E8        29.92F
GREAT FALLS MT CLEAR     65  48  54 SE5       29.90F
CHEYENNE WY    CLOUDY    59  54  83 CALM      30.19F
SCOTTSBLUFF NE CLOUDY    62  57  83 S3        30.05F
OMAHA NE       MOCLDY    66  61  84 CALM      30.03F
DES MOINES IA  MOCLDY    69  65  86 N3        29.99F
DAVENPORT IA   CLOUDY    68  65  90 NE7       29.96F
CHICAGO IL     MOCLDY    71  66  84 VRB6      29.93F
EAU CLAIRE WI  CLEAR     60  60 100 NE3       30.03S FOG
LA CROSSE WI   CLOUDY    68  65  90 N3        30.01S
$$

  *****  SOME NATIONAL WEATHER *****

CITY           SKY/WX    TMP DP  RH WIND       PRES   REMARKS
LA GUARDIA NY  CLOUDY    78  70  76 S3        29.93R
RALEIGH NC     PTCLDY    78  71  79 SE5       29.94F
ATLANTA GA     CLOUDY    76  72  87 CALM      30.00F
NEW ORLEANS LA CLEAR     80  75  84 CALM      30.01S
OKLAHOMA CITY  PTCLDY    72  69  90 SE6       30.00S
ALBUQUERQUE NM MOCLDY    70  58  65 E6        30.18R
SALT LAKE CITY MOCLDY    82  39  21 SE8       29.93S
LOS ANGELES CA CLEAR     70  62  76 CALM      29.82F
BOISE ID       CLEAR     79  35  20 SE10      29.82R
SEATTLE WA     CLEAR     69  58  67 W7        29.90R
$$

*** WEATHER ACROSS MANITOBA...SASKATCHEWAN AND ONTARIO ***
                ***ONTARIO***

CITY           SKY/WX    TMP DP  RH WIND       PRES   REMARKS
GERALDTON      CLEAR     55  50  82 W5        30.08R
THUNDER BAY    CLEAR     52  50  93 SW5       30.07S
SIOUX LOOKOUT  PTCLDY    54  54 100 SE3       30.02S
TORONTO        MOCLDY    68  52  56 NE10      30.02S
BIG TROUT LK   CLEAR     64  61  88 SW3       29.94S
PICKLE LAKE    NOT AVBL
DRYDEN         CLEAR     64  55  72 S6        30.02F
KENORA         PTCLDY    66  55  68 SE3       30.00F
$$
                *** MANITOBA***

CITY           SKY/WX    TMP DP  RH WIND       PRES   REMARKS
BRANDON        MOCLDY    57  54  88 N5        29.94F
DAUPHIN        PTCLDY    64  55  72 SW8       29.88F
ISLAND LAKE    PTCLDY    61  57  88 SW2       29.91F
PILOT MOUND      N/A     57  55  94 SE7         N/A
THE PAS        PTCLDY    61  59  94 S5        29.81F
THOMPSON       LGT RAIN  63  61  94 E3        29.83F
WINNIPEG       CLEAR     63  55  77 S7        29.95F
LYNN LAKE      CLOUDY    61  59  94 MISG      29.82F
CHURCHILL      PTCLDY    52  46  82 SE8       29.99S
GILLAM         CLOUDY    54  50  87 E8G18     29.91F
$$
                ***SASKATCHEWAN***

CITY           SKY/WX    TMP DP  RH WIND       PRES   REMARKS
ESTEVAN        CLEAR     59  55  88 S5        29.93F
KINDERSLEY     NOT AVBL
LLOYDMINSTER   CLEAR     63  55  77 S7        29.82F
PRINCE ALBERT  PTCLDY    57  57 100 NE3       29.81F
REGINA         PTCLDY    59  57  94 E7        29.90F
YORKTON        MOCLDY    63  59  88 S6        29.88F
N. BATTLEFORD  CLEAR     59  59 100 SE6       29.84F
LA RONGE       CLEAR     55  55 100 VRB2      29.77F
SASKATOON      CLEAR     61  61 100 S6        29.86F
SWIFT CURRENT  CLEAR     59  57  94 S8        29.91F
$$
NOTE: THESE ARE AUTOMATED STATIONS WITH LIMITED QUALITY CONTROL
      "FAIR" INDICATES FEW OR NO CLOUDS BELOW 12,000 FEET WITH NO
      SIGNIFICANT WEATHER AND/OR OBSTRUCTIONS TO VISIBILITY.
      SKY/WX - SKY CONDITION AND SIGNIFICANT WEATHER.
      TMP - AIR TEMPERATURE.    DP   - DEWPOINT TEMPERATURE.
      RH  - RELATIVE HUMIDITY.  PRES - PRESSURE.
      HX  - HEAT INDEX.         WCI  - WIND CHILL INDEX.
$



USA.gov is the U.S. government's official web portal to all federal, state and local government web resources and services.